Regional Weather Roundup
Issued by NWS Northern Indiana

Home | Current Version | Previous Version | Text Only | Print | Product List | Glossary On
Versions: 1 2 3 4 5 6 7 8 9 10 11 12 13 14 15 16 17 18 19 20 21 22 23 24 25 26 27 28 29 30 31 32 33 34 35 36 37 38 39 40 41 42 43 44 45 46 47 48 49 50
499
ASUS43 KIWX 191800
RWRIWX

KIWX WEATHER ROUNDUP
NATIONAL WEATHER SERVICE NORTHERN INDIANA
100 PM EST SUN NOV 19 2017

NOTE: "FAIR" INDICATES FEW OR NO CLOUDS BELOW 12,000 FEET WITH NO
SIGNIFICANT WEATHER AND/OR OBSTRUCTIONS TO VISIBILITY.

* THESE STATIONS ARE NOT UNDER NWS QUALITY CONTROL. THEY ALSO MAY NOT
  REPORT WEATHER SUCH AS PRECIPITATION OR FOG.

INZ001>027-191900-
NORTHERN INDIANA

CITY           SKY/WX    TMP DP  RH WIND       PRES   REMARKS
GARY*          MOSUNNY   36  19  51 W12G23    30.05S
VALPARAISO     PTSUNNY   36  23  59 W15       30.03S
6HR MIN TEMP:  33; 6HR MAX TEMP:  36;

MICHIGAN CITY* PTSUNNY   32  21  64 W9G20     30.03S WCI  24
LAPORTE*       CLOUDY    32  20  61 NW12G20   30.02R WCI  23
6HR MIN TEMP:  32; 6HR MAX TEMP:  33;

KNOX*          PTSUNNY   32  23  69 W12       30.02S WCI  23
SOUTH BEND     CLOUDY    32  24  72 W13       30.00R WCI  22
6HR MIN TEMP:  32; 6HR MAX TEMP:  35; 6HR PCP: TRACE;

ELKHART*       CLOUDY    32  21  64 W13G21    29.98S WCI  22
GOSHEN         CLOUDY    33  21  61 W13       29.97S WCI  24
6HR MIN TEMP:  33; 6HR MAX TEMP:  36;

MONTICELLO*    CLOUDY    32  22  67 W14       30.06R WCI  22
6HR MIN TEMP:  31; 6HR MAX TEMP:  34;

WARSAW*        CLOUDY    32  25  74 W15       29.99S WCI  22
AUBURN*        CLOUDY    34  27  75 W14       29.95F WCI  24
FORT WAYNE     CLOUDY    35  28  75 W20       29.96F WCI  24
6HR MIN TEMP:  35; 6HR MAX TEMP:  38;

PERU/GRISSOM   CLOUDY    32  25  76 W20       30.02S WCI  20
6HR MIN TEMP:  32; 6HR MAX TEMP:  35;


$$
INZ028>050-191900-
CENTRAL INDIANA

CITY           SKY/WX    TMP DP  RH WIND       PRES   REMARKS
LAFAYETTE      CLOUDY    30  23  75 W13G21    30.08S WCI  20
6HR MIN TEMP:  30; 6HR MAX TEMP:  33;

KOKOMO*        CLOUDY    31  25  78 W17       30.04S WCI  19
6HR MIN TEMP:  31; 6HR MAX TEMP:  35; 6HR PCP: TRACE;

MUNCIE*        CLOUDY    34  24  67 W17G25    30.01S WCI  23
6HR MIN TEMP:  34; 6HR MAX TEMP:  38;

INDIANAPOLIS   PTSUNNY   33  23  66 W20       30.07S WCI  21
6HR MIN TEMP:  33; 6HR MAX TEMP:  35;


$$
MIZ043>046-050>051-056>058-064>065-071>073-077>080-191900-
SOUTHWEST LOWER MICHIGAN

CITY           SKY/WX    TMP DP  RH WIND       PRES   REMARKS
BATTLE CREEK   CLOUDY    32  25  75 W14       29.92S WCI  22
6HR MIN TEMP:  32; 6HR MAX TEMP:  35; 6HR PCP: TRACE;

BENTON HARBOR  CLOUDY    33  20  58 W14G24    30.00R WCI  23
6HR MIN TEMP:  33; 6HR MAX TEMP:  37;

COLDWATER*     CLOUDY    33  23  66 W15G22    29.92S WCI  23
6HR MIN TEMP:  33; 6HR MAX TEMP:  35;

HILLSDALE*     CLOUDY    32  25  74 W15G24    29.88S WCI  22
HOLLAND        CLOUDY    33  23  66 W14G21    29.96R WCI  23
6HR MIN TEMP:  32; 6HR MAX TEMP:  35; 6HR PCP: TRACE;

GRAND RAPIDS   FLURRIES  32  24  72 W20       29.92R WCI  20
6HR MIN TEMP:  31; 6HR MAX TEMP:  35; 6HR PCP: TRACE;

KALAMAZOO      CLOUDY    32  21  64 NW16      29.94R WCI  21
6HR MIN TEMP:  32; 6HR MAX TEMP:  36; 6HR PCP: TRACE;

THREE RIVERS*  CLOUDY    34  24  66 W14G23    29.95S WCI  24
6HR MIN TEMP:  34; 6HR MAX TEMP:  37;


$$
OHZ001>008-015>018-024>025-191900-
NORTHWEST OHIO

CITY           SKY/WX    TMP DP  RH WIND       PRES   REMARKS
DEFIANCE       CLOUDY    36  25  64 W8G21     29.93S
6HR MIN TEMP:  36; 6HR MAX TEMP:  38; 6HR PCP: TRACE;

FINDLAY        CLOUDY    38  28  67 W20       29.90S
6HR MIN TEMP:  37; 6HR MAX TEMP:  39; 6HR PCP:  0.01;

TOLEDO EXPRESS CLOUDY    38  27  64 W16G30    29.89S
6HR MIN TEMP:  36; 6HR MAX TEMP:  39;

TOLEDO METCALF CLOUDY    39  26  59 W20G28    29.89R
6HR MIN TEMP:  36; 6HR MAX TEMP:  39;


$$
AND FOR LAKE MICHIGAN COASTAL AND OPEN LAKE BUOY OBSERVATIONS

STATION/POSITION TEMP    WIND        PRES    VSBY  WAVE
                 AIR SEA DIR/SP/G                  HT/PER
                 (F)     (DEG/KT/KT) (MB)    (MI)  (FT/S)
CALUMET HARBOR    33     250/  6/ 14 1016.7R
MICHIGAN CITY     32     280/ 19/ 20   N/A
BURNS HARBOR      33     290/ 14/ 19 1017.6S
SAINT JOSEPH      34     300/ 14/ 20 1016.6R
SOUTH LAKE BUOY   31 49  320/ 17/ 23 1016.2          5/ 7

$$
&&




USA.gov is the U.S. government's official web portal to all federal, state and local government web resources and services.